User: anonymous   Login
Location: Unspecified
(0.0000°N, 0.0000°E)
Time: 02:59:56
(UTC+00:00)
Language:

OBJECT M - Orbit

View from above orbital plane
View from above orbital plane
View from above satellite
View from above satellite

Ground track
Ground track

The orbit is defined by the following mean orbital elements,

1 63221U          26145.45544262 +.00000000 +00000-0 +16059-3 0 00001
2 63221  97.3917  38.0083 0002553 189.8152 170.3034 15.21737172    07
Epoch (UTC): 25 May 2026 10:55:50
Eccentricity: 0.0002553
inclination: 97.3917°
perigee height: 499 km
apogee height: 502 km
right ascension of ascending node: 38.0083°
argument of perigee: 189.8152°
revolutions per day: 15.21737172
mean anomaly at epoch: 170.3034°

The dashed part of the orbit path shows where the satellite is in the earth's shadow,  

DLR